Airfield :
LOGIN :

Register | Disclaimer

   EN    FR    IT 

 










Legend :    VFR   Marginal VFR   IFR   Intensive IFR   Very Intensive IFR
Visi :
Ceiling :
>= 8 km
>= 3000ft
5 to 8 km
1000 to 3000 ft
1500m to 5 km
500 to 1000 ft
800 to 1500m
200 to 500 ft
< 800m
< 200 ft
Symbols :   Thunderstorms  Fog  Heavy snow  Heavy precipitations  Wind > 20 kt
SIGMETs :     Misc.  Thunderstorms  Icing  Turbulence  Mountain Waves  Volcanic Ashes







- Airport Elevation : 239 ft
- IATA code : VRN


LIPX - Villafranca Int. Verona

CURRENT METAR :
  • 200520Z VRB02KT 9999 SCT070 11/09 Q1014

EXPIRED METARs :
  • 200450Z 25003KT 190V320 9999 SCT070 12/08 Q1014
  • 200420Z 21007KT 9999 SCT070 12/08 Q1014
  • 200350Z 22006KT 9999 SCT060 12/08 Q1014
  • 200320Z 18004KT 9999 SCT060 12/08 Q1014
  • 200250Z 16004KT 9999 SCT060 11/09 Q1014

TAF TAF LIPX
Valid from the 20 at 06:00 until the 20 at 15:00 UTC


200500Z 2006/2015 23006KT 9999 SCT070
No reported NOTAMs for that airfield.



MET'MAP, your aeronautical weather chart ! - Copyright ORBIFLY December 2007 - Disclaimer

ORBIFLY MET'MAP TEAM :

Programming & Development : Alexandra Zaïnal
Concept & Development : Baudouin d'Aumeries
Co-Development & Prog : Marc-Olivier Méhu
Technical & hardware support : Manuel Goepfert

Contact : metmap@orbifly.com




SOURCES & CREDITS :

   NOAA